VUN1 YBAS-YDBR

Flight info

Callsign VUN1
Flight time 2h 6m
Altitude 31000
Route GAFER J64 RILVO
Aircraft A400/H-SDE2E3FGHIJ4J5M1RWXY/LB1D1

Departure

Time 2026-05-04 22:48
Airport Alice Springs Airport (YBAS)

Arrival

Time 2026-05-05 00:54
Airport Dunbar Airport (YDBR)
Time Latitude Longitude Altitude Speed Heading
2026-05-04 22:31 -23.80365 133.90285 1791 ft 0 kts 70°
2026-05-04 22:43 -23.80375 133.90253 1793 ft 3 kts 53°
2026-05-04 22:43 -23.80390 133.90246 1787 ft 4 kts 313°
2026-05-04 22:43 -23.80397 133.90263 1787 ft 2 kts 202°
2026-05-04 22:43 -23.80384 133.90263 1790 ft 2 kts 147°
2026-05-04 22:44 -23.80419 133.90298 1789 ft 10 kts 133°
2026-05-04 22:44 -23.80462 133.90357 1791 ft 9 kts 132°
2026-05-04 22:44 -23.80497 133.90371 1791 ft 4 kts 183°
2026-05-04 22:44 -23.80525 133.90362 1791 ft 5 kts 205°
2026-05-04 22:45 -23.80587 133.90330 1791 ft 15 kts 191°
2026-05-04 22:45 -23.80767 133.90576 1789 ft 27 kts 120°
2026-05-04 22:45 -23.80863 133.90755 1788 ft 28 kts 120°
2026-05-04 22:46 -23.80960 133.90936 1789 ft 27 kts 120°
2026-05-04 22:46 -23.81051 133.91107 1790 ft 24 kts 120°
2026-05-04 22:46 -23.81123 133.91224 1788 ft 15 kts 120°
2026-05-04 22:46 -23.81157 133.91332 1788 ft 15 kts 101°
2026-05-04 22:47 -23.81193 133.91391 1788 ft 4 kts 206°
2026-05-04 22:47 -23.81188 133.91348 1787 ft 7 kts 297°
2026-05-04 22:47 -23.81162 133.91300 1789 ft 8 kts 300°
2026-05-04 22:47 -23.81090 133.91164 1790 ft 60 kts 301°
2026-05-04 22:48 -23.80694 133.90434 1792 ft 158 kts 300°
2026-05-04 22:48 -23.80089 133.89295 2308 ft 179 kts 300°
2026-05-04 22:48 -23.79450 133.88063 3069 ft 197 kts 299°
2026-05-04 22:48 -23.78651 133.86713 3706 ft 226 kts 308°
2026-05-04 22:49 -23.77452 133.85473 4454 ft 250 kts 326°
2026-05-04 22:49 -23.75812 133.84702 5313 ft 265 kts 349°
2026-05-04 22:49 -23.73948 133.84682 6259 ft 273 kts
2026-05-04 22:49 -23.72063 133.85019 7311 ft 276 kts 11°
2026-05-04 22:50 -23.70206 133.85581 8365 ft 278 kts 18°
2026-05-04 22:50 -23.68431 133.86432 9402 ft 283 kts 30°
2026-05-04 22:50 -23.67371 133.87286 9896 ft 289 kts 43°
2026-05-04 22:50 -23.66157 133.89058 10674 ft 297 kts 64°
2026-05-04 22:51 -23.65691 133.92024 11816 ft 306 kts 95°
2026-05-04 22:51 -23.65930 133.94355 12394 ft 321 kts 97°
2026-05-04 22:51 -23.66285 133.96853 12858 ft 337 kts 102°
2026-05-04 22:51 -23.66686 133.98504 13209 ft 344 kts 107°
2026-05-04 22:52 -23.67295 134.01064 13736 ft 354 kts 101°
2026-05-04 22:52 -23.67583 134.03758 14279 ft 361 kts 92°
2026-05-04 22:52 -23.67520 134.06515 14831 ft 367 kts 84°
2026-05-04 22:52 -23.67114 134.09271 15412 ft 370 kts 77°
2026-05-04 22:53 -23.66371 134.11980 15990 ft 375 kts 69°
2026-05-04 22:53 -23.65303 134.14584 16554 ft 379 kts 62°
2026-05-04 22:53 -23.64014 134.17104 17126 ft 383 kts 59°
2026-05-04 22:53 -23.62662 134.19621 17705 ft 387 kts 58°
2026-05-04 22:54 -23.61290 134.22169 18277 ft 391 kts 58°
2026-05-04 22:54 -23.59908 134.24743 18788 ft 396 kts 58°
2026-05-04 22:54 -23.58509 134.27357 19282 ft 401 kts 59°
2026-05-04 22:54 -23.57101 134.29993 19781 ft 404 kts 59°
2026-05-04 22:55 -23.55682 134.32653 20289 ft 408 kts 59°
2026-05-04 22:55 -23.54252 134.35332 20788 ft 411 kts 59°
2026-05-04 22:55 -23.52807 134.38039 21277 ft 415 kts 59°
2026-05-04 22:55 -23.51351 134.40765 21753 ft 419 kts 59°
2026-05-04 22:56 -23.49878 134.43522 22221 ft 422 kts 59°
2026-05-04 22:56 -23.48398 134.46291 22683 ft 426 kts 59°
2026-05-04 22:56 -23.46899 134.49094 23131 ft 429 kts 59°
2026-05-04 22:56 -23.45391 134.51912 23566 ft 432 kts 59°
2026-05-04 22:57 -23.43871 134.54751 23954 ft 435 kts 59°
2026-05-04 22:57 -23.42341 134.57608 24281 ft 438 kts 59°
2026-05-04 22:57 -23.40800 134.60483 24593 ft 441 kts 59°
2026-05-04 22:57 -23.39247 134.63377 24889 ft 444 kts 59°
2026-05-04 22:58 -23.37688 134.66283 25182 ft 446 kts 59°
2026-05-04 22:58 -23.36120 134.69203 25472 ft 448 kts 59°
2026-05-04 22:58 -23.34542 134.72140 25738 ft 451 kts 58°
2026-05-04 22:58 -23.32957 134.75090 25997 ft 453 kts 58°
2026-05-04 22:59 -23.31361 134.78056 26256 ft 455 kts 58°
2026-05-04 22:59 -23.29760 134.81030 26509 ft 457 kts 58°
2026-05-04 22:59 -23.28151 134.84019 26745 ft 459 kts 58°
2026-05-04 22:59 -23.26535 134.87017 26970 ft 461 kts 58°
2026-05-04 23:00 -23.24912 134.90028 27171 ft 463 kts 58°
2026-05-04 23:00 -23.23282 134.93051 27423 ft 463 kts 58°
2026-05-04 23:00 -23.21650 134.96073 27708 ft 463 kts 58°
2026-05-04 23:00 -23.20020 134.99092 28005 ft 463 kts 58°
2026-05-04 23:01 -23.18389 135.02109 28300 ft 463 kts 58°
2026-05-04 23:01 -23.16757 135.05127 28599 ft 463 kts 57°
2026-05-04 23:01 -23.15125 135.08144 28900 ft 463 kts 57°
2026-05-04 23:01 -23.13493 135.11159 29201 ft 463 kts 57°
2026-05-04 23:02 -23.11860 135.14172 29509 ft 463 kts 57°
2026-05-04 23:02 -23.10230 135.17181 29827 ft 462 kts 57°
2026-05-04 23:02 -23.08598 135.20189 30147 ft 462 kts 57°
2026-05-04 23:02 -23.06965 135.23197 30440 ft 462 kts 57°
2026-05-04 23:03 -23.05335 135.26201 30713 ft 461 kts 57°
2026-05-04 23:03 -23.03705 135.29201 30956 ft 462 kts 57°
2026-05-04 23:03 -23.02073 135.32202 31195 ft 461 kts 56°
2026-05-04 23:03 -23.00440 135.35204 31261 ft 463 kts 56°
2026-05-04 23:04 -22.97166 135.41217 31266 ft 462 kts 56°
2026-05-04 23:04 -22.93895 135.47218 31268 ft 462 kts 56°
2026-05-04 23:05 -22.90622 135.53215 31268 ft 462 kts 56°
2026-05-04 23:05 -22.87347 135.59209 31268 ft 462 kts 56°
2026-05-04 23:06 -22.84071 135.65198 31265 ft 462 kts 56°
2026-05-04 23:06 -22.80791 135.71187 31268 ft 462 kts 56°
2026-05-04 23:07 -22.77511 135.77169 31261 ft 462 kts 56°
2026-05-04 23:07 -22.74232 135.83142 31263 ft 461 kts 56°
2026-05-04 23:08 -22.70951 135.89113 31268 ft 461 kts 56°
2026-05-04 23:08 -22.67670 135.95077 31269 ft 461 kts 56°
2026-05-04 23:09 -22.64384 136.01041 31240 ft 461 kts 55°
2026-05-04 23:09 -22.61100 136.06998 31253 ft 461 kts 55°
2026-05-04 23:10 -22.57812 136.12953 31261 ft 461 kts 55°
2026-05-04 23:10 -22.54524 136.18901 31258 ft 461 kts 55°
2026-05-04 23:11 -22.51234 136.24848 31252 ft 461 kts 55°
2026-05-04 23:11 -22.47942 136.30790 31249 ft 461 kts 55°
2026-05-04 23:12 -22.44644 136.36735 31254 ft 461 kts 55°
2026-05-04 23:12 -22.41349 136.42670 31252 ft 460 kts 55°
2026-05-04 23:13 -22.38053 136.48600 31240 ft 460 kts 55°
2026-05-04 23:13 -22.34755 136.54527 31236 ft 460 kts 54°
2026-05-04 23:14 -22.31454 136.60451 31253 ft 460 kts 54°
2026-05-04 23:14 -22.28154 136.66370 31242 ft 460 kts 54°
2026-05-04 23:15 -22.24850 136.72290 31253 ft 460 kts 54°
2026-05-04 23:15 -22.21546 136.78205 31244 ft 460 kts 54°
2026-05-04 23:16 -22.18245 136.84106 31242 ft 459 kts 54°
2026-05-04 23:16 -22.14942 136.90006 31244 ft 459 kts 54°
2026-05-04 23:17 -22.11639 136.95896 31243 ft 459 kts 54°
2026-05-04 23:17 -22.08335 137.01784 31240 ft 458 kts 53°
2026-05-04 23:18 -22.05034 137.07660 31226 ft 458 kts 53°
2026-05-04 23:18 -22.01729 137.13535 31236 ft 459 kts 53°
2026-05-04 23:19 -21.98419 137.19413 31239 ft 459 kts 53°
2026-05-04 23:19 -21.95105 137.25293 31236 ft 459 kts 53°
2026-05-04 23:20 -21.91791 137.31165 31233 ft 459 kts 53°
2026-05-04 23:20 -21.88471 137.37043 31229 ft 460 kts 53°
2026-05-04 23:21 -21.85145 137.42923 31232 ft 460 kts 52°
2026-05-04 23:21 -21.81819 137.48799 31229 ft 459 kts 52°
2026-05-04 23:22 -21.78493 137.54667 31229 ft 459 kts 52°
2026-05-04 23:22 -21.75161 137.60539 31225 ft 459 kts 52°
2026-05-04 23:23 -21.71833 137.66399 31226 ft 460 kts 52°
2026-05-04 23:23 -21.68490 137.72276 31225 ft 461 kts 52°
2026-05-04 23:24 -21.65145 137.78152 31224 ft 461 kts 52°
2026-05-04 23:24 -21.61803 137.84019 31220 ft 460 kts 51°
2026-05-04 23:25 -21.58492 137.89825 31206 ft 458 kts 51°
2026-05-04 23:25 -21.55147 137.95673 31217 ft 461 kts 51°
2026-05-04 23:26 -21.51784 138.01545 31220 ft 461 kts 51°
2026-05-04 23:26 -21.48425 138.07407 31213 ft 460 kts 51°
2026-05-04 23:27 -21.45068 138.13261 31211 ft 460 kts 51°
2026-05-04 23:27 -21.41712 138.19105 31211 ft 460 kts 51°
2026-05-04 23:28 -21.38353 138.24948 31204 ft 460 kts 50°
2026-05-04 23:28 -21.34994 138.30785 31205 ft 460 kts 50°
2026-05-04 23:29 -21.31636 138.36614 31203 ft 459 kts 50°
2026-05-04 23:29 -21.28274 138.42443 31198 ft 459 kts 50°
2026-05-04 23:30 -21.24916 138.48260 31198 ft 459 kts 50°
2026-05-04 23:30 -21.21541 138.54097 31202 ft 461 kts 50°
2026-05-04 23:31 -21.18166 138.59931 31196 ft 461 kts 50°
2026-05-04 23:31 -21.14791 138.65761 31190 ft 461 kts 49°
2026-05-04 23:32 -21.11414 138.71588 31188 ft 460 kts 49°
2026-05-04 23:32 -21.08590 138.76455 31180 ft 460 kts 49°
2026-05-04 23:33 -21.05221 138.82248 31179 ft 462 kts 49°
2026-05-04 23:33 -21.01825 138.88090 31186 ft 462 kts 49°
2026-05-04 23:34 -20.98436 138.93918 31183 ft 460 kts 49°
2026-05-04 23:34 -20.95053 138.99724 31183 ft 460 kts 49°
2026-05-04 23:35 -20.91664 139.05534 31172 ft 460 kts 49°
2026-05-04 23:35 -20.88270 139.11345 31177 ft 461 kts 49°
2026-05-04 23:36 -20.84877 139.17152 31174 ft 460 kts 49°
2026-05-04 23:36 -20.81483 139.22953 31171 ft 460 kts 49°
2026-05-04 23:37 -20.78089 139.28748 31167 ft 460 kts 49°
2026-05-04 23:37 -20.74692 139.34541 31156 ft 461 kts 49°
2026-05-04 23:38 -20.71282 139.40348 31152 ft 462 kts 49°
2026-05-04 23:38 -20.67871 139.46157 31155 ft 462 kts 49°
2026-05-04 23:39 -20.64439 139.51949 31157 ft 461 kts 48°
2026-05-04 23:39 -20.60980 139.57695 31153 ft 460 kts 48°
2026-05-04 23:40 -20.57510 139.63443 31161 ft 460 kts 48°
2026-05-04 23:40 -20.54033 139.69202 31156 ft 462 kts 48°
2026-05-04 23:41 -20.50559 139.74958 31163 ft 462 kts 48°
2026-05-04 23:41 -20.47083 139.80716 31160 ft 462 kts 48°
2026-05-04 23:42 -20.43602 139.86475 31157 ft 461 kts 48°
2026-05-04 23:42 -20.40123 139.92224 31155 ft 462 kts 48°
2026-05-04 23:43 -20.36628 139.97991 31156 ft 463 kts 48°
2026-05-04 23:43 -20.33131 140.03760 31156 ft 464 kts 48°
2026-05-04 23:44 -20.29629 140.09531 31153 ft 464 kts 48°
2026-05-04 23:44 -20.26126 140.15298 31153 ft 464 kts 48°
2026-05-04 23:45 -20.22618 140.21067 31140 ft 464 kts 48°
2026-05-04 23:45 -20.19107 140.26834 31153 ft 464 kts 48°
2026-05-04 23:46 -20.15590 140.32605 31143 ft 465 kts 48°
2026-05-04 23:46 -20.11925 140.38217 31144 ft 450 kts 36°
2026-05-04 23:47 -20.09581 140.40305 31142 ft 431 kts 22°
2026-05-04 23:47 -20.06993 140.41843 31142 ft 424 kts 16°
2026-05-04 23:47 -20.01717 140.44575 31140 ft 421 kts 15°
2026-05-04 23:48 -19.96435 140.47245 31140 ft 420 kts 15°
2026-05-04 23:48 -19.91159 140.49908 31140 ft 420 kts 15°
2026-05-04 23:49 -19.85914 140.52553 31135 ft 420 kts 15°
2026-05-04 23:49 -19.80635 140.55215 31106 ft 420 kts 15°
2026-05-04 23:50 -19.75360 140.57873 31133 ft 420 kts 15°
2026-05-04 23:50 -19.70084 140.60529 31132 ft 420 kts 15°
2026-05-04 23:51 -19.64811 140.63182 31132 ft 419 kts 15°
2026-05-04 23:51 -19.59541 140.65832 31126 ft 419 kts 15°
2026-05-04 23:52 -19.54278 140.68476 31130 ft 418 kts 15°
2026-05-04 23:52 -19.49017 140.71117 31124 ft 418 kts 15°
2026-05-04 23:53 -19.43758 140.73755 31124 ft 418 kts 15°
2026-05-04 23:53 -19.38500 140.76391 31124 ft 418 kts 15°
2026-05-04 23:54 -19.33239 140.79026 31114 ft 418 kts 15°
2026-05-04 23:54 -19.27964 140.81666 31121 ft 420 kts 15°
2026-05-04 23:55 -19.22682 140.84308 31116 ft 420 kts 15°
2026-05-04 23:56 -19.14759 140.88268 31109 ft 420 kts 15°
2026-05-04 23:56 -19.09467 140.90910 31110 ft 421 kts 16°
2026-05-04 23:57 -19.04162 140.93556 31111 ft 422 kts 16°
2026-05-04 23:57 -18.98850 140.96206 31117 ft 422 kts 16°
2026-05-04 23:58 -18.93542 140.98851 31098 ft 422 kts 16°
2026-05-04 23:58 -18.88231 141.01495 31113 ft 422 kts 16°
2026-05-04 23:59 -18.82919 141.04133 31102 ft 422 kts 16°
2026-05-04 23:59 -18.77598 141.06780 31099 ft 423 kts 16°
2026-05-05 00:00 -18.72275 141.09427 31099 ft 423 kts 16°
2026-05-05 00:00 -18.66954 141.12071 31097 ft 423 kts 16°
2026-05-05 00:01 -18.61625 141.14714 31095 ft 424 kts 16°
2026-05-05 00:01 -18.56267 141.17370 31094 ft 426 kts 16°
2026-05-05 00:02 -18.50904 141.20028 31095 ft 426 kts 16°
2026-05-05 00:02 -18.45538 141.22685 31091 ft 426 kts 16°
2026-05-05 00:03 -18.40169 141.25342 31072 ft 426 kts 16°
2026-05-05 00:03 -18.34795 141.27998 31084 ft 428 kts 16°
2026-05-05 00:04 -18.29400 141.30664 31086 ft 428 kts 16°
2026-05-05 00:04 -18.24006 141.33328 31086 ft 428 kts 16°
2026-05-05 00:05 -18.18650 141.35971 31080 ft 428 kts 17°
2026-05-05 00:05 -18.13226 141.38645 31073 ft 428 kts 17°
2026-05-05 00:06 -18.07825 141.41306 31073 ft 429 kts 17°
2026-05-05 00:06 -18.02453 141.43952 31074 ft 429 kts 17°
2026-05-05 00:07 -17.97010 141.46630 31072 ft 429 kts 17°
2026-05-05 00:07 -17.91640 141.49271 31055 ft 429 kts 17°
2026-05-05 00:08 -17.86223 141.51932 31069 ft 430 kts 17°
2026-05-05 00:08 -17.80798 141.54596 31068 ft 430 kts 17°
2026-05-05 00:09 -17.75373 141.57259 31060 ft 430 kts 17°
2026-05-05 00:09 -17.69949 141.59919 31057 ft 431 kts 17°
2026-05-05 00:10 -17.64519 141.62580 31063 ft 431 kts 17°
2026-05-05 00:10 -17.59074 141.65246 31061 ft 432 kts 17°
2026-05-05 00:11 -17.53625 141.67913 31057 ft 432 kts 17°
2026-05-05 00:11 -17.48175 141.70579 31060 ft 432 kts 17°
2026-05-05 00:12 -17.42687 141.73262 31044 ft 432 kts 17°
2026-05-05 00:12 -17.37264 141.75910 31053 ft 434 kts 17°
2026-05-05 00:13 -17.31793 141.78581 31052 ft 434 kts 17°
2026-05-05 00:13 -17.26318 141.81252 31054 ft 434 kts 18°
2026-05-05 00:14 -17.20853 141.83917 31049 ft 433 kts 17°
2026-05-05 00:14 -17.15386 141.86579 31048 ft 433 kts 17°
2026-05-05 00:15 -17.09922 141.89240 31044 ft 433 kts 17°
2026-05-05 00:15 -17.04461 141.91897 31045 ft 433 kts 17°
2026-05-05 00:16 -16.98996 141.94554 31044 ft 433 kts 17°
2026-05-05 00:16 -16.94454 141.96761 31042 ft 433 kts 17°
2026-05-05 00:17 -16.88986 141.99416 31043 ft 434 kts 18°
2026-05-05 00:17 -16.83502 142.02078 31040 ft 435 kts 18°
2026-05-05 00:18 -16.78012 142.04741 31039 ft 435 kts 18°
2026-05-05 00:18 -16.72530 142.07398 31037 ft 434 kts 18°
2026-05-05 00:19 -16.67047 142.10054 31029 ft 435 kts 18°
2026-05-05 00:19 -16.61549 142.12715 31032 ft 436 kts 18°
2026-05-05 00:20 -16.56043 142.15379 31032 ft 436 kts 18°
2026-05-05 00:20 -16.50539 142.18040 31029 ft 436 kts 18°
2026-05-05 00:21 -16.45033 142.20701 31032 ft 436 kts 18°
2026-05-05 00:21 -16.39527 142.23359 31026 ft 437 kts 18°
2026-05-05 00:22 -16.33995 142.26028 31028 ft 438 kts 18°
2026-05-05 00:22 -16.28464 142.28696 31020 ft 438 kts 18°
2026-05-05 00:23 -16.22929 142.31364 31023 ft 438 kts 18°
2026-05-05 00:23 -16.17434 142.34011 31015 ft 438 kts 19°
2026-05-05 00:24 -16.11889 142.36680 31022 ft 440 kts 19°
2026-05-05 00:24 -16.06335 142.39353 31023 ft 440 kts 19°
2026-05-05 00:25 -16.00782 142.42026 31018 ft 440 kts 19°
2026-05-05 00:25 -15.95227 142.44705 31018 ft 440 kts 19°
2026-05-05 00:26 -15.89676 142.47384 31017 ft 440 kts 19°
2026-05-05 00:26 -15.84120 142.50069 31019 ft 441 kts 19°
2026-05-05 00:27 -15.78557 142.52761 31016 ft 441 kts 19°
2026-05-05 00:27 -15.73005 142.55452 31018 ft 440 kts 19°
2026-05-05 00:28 -15.67451 142.58147 31007 ft 440 kts 19°
2026-05-05 00:28 -15.61899 142.60845 31016 ft 441 kts 19°
2026-05-05 00:29 -15.56345 142.63546 31015 ft 441 kts 20°
2026-05-05 00:29 -15.50785 142.66254 31015 ft 441 kts 20°
2026-05-05 00:30 -15.45233 142.68961 31015 ft 441 kts 20°
2026-05-05 00:30 -15.39678 142.71674 31009 ft 441 kts 20°
2026-05-05 00:31 -15.34120 142.74390 31011 ft 442 kts 20°
2026-05-05 00:31 -15.28562 142.77110 31005 ft 442 kts 20°
2026-05-05 00:32 -15.23007 142.79832 31007 ft 442 kts 20°
2026-05-05 00:32 -15.17453 142.82557 31007 ft 442 kts 20°
2026-05-05 00:33 -15.11904 142.85283 31001 ft 442 kts 20°
2026-05-05 00:33 -15.06258 142.87652 30958 ft 433 kts
2026-05-05 00:33 -15.03305 142.88014 30598 ft 427 kts 358°
2026-05-05 00:34 -15.00320 142.88145 29946 ft 429 kts 356°
2026-05-05 00:34 -14.97334 142.88239 29166 ft 430 kts 356°
2026-05-05 00:34 -14.94354 142.88315 28395 ft 424 kts 356°
2026-05-05 00:34 -14.91445 142.88361 27632 ft 412 kts 354°
2026-05-05 00:35 -14.88696 142.87853 26905 ft 395 kts 336°
2026-05-05 00:35 -14.86352 142.86499 26185 ft 382 kts 318°
2026-05-05 00:35 -14.84637 142.84463 25499 ft 375 kts 300°
2026-05-05 00:35 -14.83712 142.81961 24832 ft 374 kts 282°
2026-05-05 00:36 -14.83418 142.79294 24172 ft 374 kts 276°
2026-05-05 00:36 -14.83273 142.76602 23533 ft 380 kts 275°
2026-05-05 00:36 -14.83476 142.73791 22775 ft 403 kts 262°
2026-05-05 00:36 -14.84392 142.71043 22037 ft 407 kts 247°
2026-05-05 00:37 -14.85819 142.68529 21251 ft 405 kts 236°
2026-05-05 00:37 -14.87826 142.66544 20150 ft 401 kts 217°
2026-05-05 00:37 -14.90325 142.65256 18837 ft 403 kts 202°
2026-05-05 00:37 -14.92984 142.64386 17388 ft 398 kts 195°
2026-05-05 00:38 -14.95640 142.63918 15929 ft 374 kts 187°
2026-05-05 00:38 -14.98195 142.63659 14556 ft 370 kts 186°
2026-05-05 00:38 -15.00798 142.63419 13142 ft 384 kts 186°
2026-05-05 00:38 -15.03373 142.63190 11652 ft 353 kts 187°
2026-05-05 00:39 -15.05711 142.62996 10267 ft 322 kts 186°
2026-05-05 00:39 -15.07841 142.62797 9119 ft 294 kts 186°
2026-05-05 00:39 -15.09773 142.62574 8183 ft 267 kts 186°
2026-05-05 00:39 -15.11569 142.62321 7492 ft 261 kts 186°
2026-05-05 00:40 -15.13407 142.62035 7107 ft 271 kts 186°
2026-05-05 00:40 -15.15266 142.61639 6994 ft 274 kts 189°
2026-05-05 00:40 -15.17129 142.61218 6984 ft 274 kts 189°
2026-05-05 00:40 -15.18995 142.60788 6983 ft 275 kts 190°
2026-05-05 00:41 -15.20860 142.60349 6982 ft 275 kts 190°
2026-05-05 00:41 -15.22700 142.59911 6981 ft 275 kts 190°
2026-05-05 00:41 -15.24566 142.59466 6982 ft 275 kts 190°
2026-05-05 00:41 -15.26431 142.59018 6981 ft 275 kts 190°
2026-05-05 00:42 -15.28298 142.58570 6980 ft 275 kts 190°
2026-05-05 00:42 -15.30164 142.58120 6982 ft 275 kts 190°
2026-05-05 00:42 -15.32030 142.57671 6976 ft 276 kts 190°
2026-05-05 00:42 -15.33897 142.57221 6946 ft 276 kts 189°
2026-05-05 00:43 -15.35785 142.57006 6925 ft 272 kts 178°
2026-05-05 00:43 -15.37678 142.57043 6925 ft 272 kts 175°
2026-05-05 00:43 -15.39574 142.57111 6927 ft 272 kts 176°
2026-05-05 00:43 -15.41468 142.57157 6926 ft 272 kts 176°
2026-05-05 00:44 -15.43361 142.57196 6927 ft 272 kts 176°
2026-05-05 00:44 -15.45257 142.57236 6926 ft 272 kts 176°
2026-05-05 00:44 -15.47145 142.57274 6926 ft 272 kts 176°
2026-05-05 00:44 -15.49038 142.57313 6928 ft 272 kts 176°
2026-05-05 00:45 -15.50931 142.57352 6923 ft 272 kts 176°
2026-05-05 00:45 -15.52824 142.57381 6921 ft 272 kts 177°
2026-05-05 00:45 -15.54718 142.57388 6922 ft 272 kts 177°
2026-05-05 00:45 -15.56614 142.57391 6923 ft 272 kts 177°
2026-05-05 00:46 -15.58509 142.57393 6919 ft 272 kts 177°
2026-05-05 00:46 -15.60404 142.57395 6924 ft 272 kts 177°
2026-05-05 00:46 -15.62298 142.57401 6927 ft 272 kts 177°
2026-05-05 00:46 -15.64197 142.57406 6772 ft 273 kts 177°
2026-05-05 00:47 -15.66092 142.57404 6543 ft 272 kts 177°
2026-05-05 00:47 -15.67976 142.57392 6297 ft 270 kts 178°
2026-05-05 00:47 -15.69851 142.57377 6053 ft 269 kts 177°
2026-05-05 00:47 -15.71721 142.57367 5724 ft 268 kts 177°
2026-05-05 00:48 -15.73577 142.57359 5345 ft 266 kts 178°
2026-05-05 00:48 -15.75428 142.57355 4990 ft 265 kts 178°
2026-05-05 00:48 -15.77269 142.57355 4666 ft 264 kts 177°
2026-05-05 00:48 -15.79106 142.57354 4341 ft 264 kts 177°
2026-05-05 00:49 -15.80939 142.57356 4026 ft 264 kts 177°
2026-05-05 00:49 -15.82781 142.57357 3706 ft 264 kts 178°
2026-05-05 00:49 -15.84622 142.57359 3392 ft 265 kts 178°
2026-05-05 00:49 -15.86469 142.57359 3093 ft 265 kts 178°
2026-05-05 00:50 -15.88314 142.57362 2991 ft 265 kts 178°
2026-05-05 00:50 -15.90160 142.57247 2990 ft 267 kts 185°
2026-05-05 00:50 -15.91984 142.56876 2984 ft 264 kts 192°
2026-05-05 00:50 -15.93684 142.56371 2977 ft 246 kts 194°
2026-05-05 00:51 -15.95294 142.55870 2909 ft 241 kts 194°
2026-05-05 00:51 -15.96942 142.55356 2608 ft 251 kts 194°
2026-05-05 00:51 -15.98560 142.54670 2254 ft 253 kts 207°
2026-05-05 00:51 -15.99899 142.53602 1993 ft 231 kts 222°
2026-05-05 00:52 -16.00690 142.52225 1646 ft 220 kts 254°
2026-05-05 00:52 -16.00958 142.50693 1543 ft 214 kts 258°
2026-05-05 00:52 -16.01347 142.49207 1520 ft 212 kts 246°
2026-05-05 00:52 -16.02008 142.47836 1244 ft 211 kts 239°
2026-05-05 00:53 -16.02705 142.46575 755 ft 188 kts 237°
2026-05-05 00:53 -16.03308 142.45427 686 ft 170 kts 244°
2026-05-05 00:53 -16.03447 142.44292 565 ft 161 kts 273°
2026-05-05 00:53 -16.03421 142.43202 518 ft 147 kts 259°
2026-05-05 00:54 -16.03759 142.42104 595 ft 167 kts 242°
2026-05-05 00:54 -16.04322 142.41245 332 ft 129 kts 215°
2026-05-05 00:54 -16.05235 142.41882 573 ft 0 kts 271°
2026-05-05 00:54 -16.05171 142.41782 491 ft 0 kts 278°
2026-05-05 00:55 -16.05189 142.41823 334 ft 0 kts 265°
2026-05-05 00:55 -16.05169 142.41677 315 ft 0 kts 270°
2026-05-05 00:55 -16.05128 142.41578 489 ft 102 kts 272°
2026-05-05 00:55 -16.05151 142.41701 626 ft 108 kts 272°
2026-05-05 00:56 -16.05175 142.42148 1235 ft 127 kts 263°
2026-05-05 00:56 -16.05178 142.41807 699 ft 0 kts 277°
2026-05-05 00:56 -16.05050 142.41278 1021 ft 133 kts 270°
2026-05-05 00:56 -16.04896 142.40200 282 ft 160 kts 273°
2026-05-05 00:57 -16.04719 142.39278 172 ft 85 kts 283°
2026-05-05 00:57 -16.04661 142.38932 169 ft 34 kts 266°
2026-05-05 00:57 -16.04604 142.38751 169 ft 22 kts 311°
2026-05-05 00:57 -16.04528 142.38642 168 ft 15 kts 277°
2026-05-05 00:58 -16.04533 142.38604 168 ft 0 kts 261°